Location: ?????
(31.8092°N, 35.2590°E)
Time: 04:41:49
(UTC+00:00)

Cosmos 2360 Rocket - Pass Details

Date: 22 October 2021
Orbit: 832 x 846 km, 71.0° (Epoch: 07 December)

Event Time Altitude Azimuth Distance (km) Brightness Sun altitude
Rises 16:59:50 0° 215° (SW) 3,368 5.8 -26.3°
Reaches altitude 10° 17:02:22 10° 222° (SW) 2,440 5.0 -26.9°
Maximum altitude 17:07:42 45° 294° (WNW) 1,134 3.2 -28.0°
Enters shadow 17:13:02 10° 6° (N) 2,443 4.6 -29.1°
